Miscellaneous Local Product
Issued by NWS North Platte, NE

Home | Current Version | Previous Version | Text Only | Print | Product List | Glossary On
Versions: 1 2 3 4 5 6 7 8 9 10 11 12 13 14 15 16 17 18 19 20 21 22 23 24 25 26 27 28 29 30 31 32 33 34 35 36 37 38 39 40 41 42 43 44 45 46 47 48 49 50
000
AXUS43 KLBF 231310
MISLBF


WESTERN AND NORTH CENTRAL NEBRASKA HOURLY WEATHER ROUNDUP
NATIONAL WEATHER SERVICE NORTH PLATTE NE
800 AM CDT SAT SEP 23 2017

NOTE: "FAIR" INDICATES FEW OR NO CLOUDS BELOW 12,000 FEET WITH NO
SIGNIFICANT WEATHER AND/OR OBSTRUCTIONS TO VISIBILITY.

NOTE: STATIONS NOT REPORTING VARIABLES SUCH AS SKY/WEATHER OR
PRESSURE ARE PROVIDED BY RAWS AND APRS NETWORKS AND ARE NOT UNDER
NATIONAL WEATHER SERVICE QUALITY CONTROL.

...OBSERVATIONS IN AND NEAR THE EASTERN PANHANDLE OF NEBRASKA...

CITY           SKY/WX    TMP DP  RH WIND       PRES   REMARKS
PINE RIDGE     CLOUDY    45  42  89 N5        30.05R
GORDON         CLOUDY    44  42  94 N9        30.04R
CHADRON        LGT RAIN  44  39  82 NE9       30.04F
ALLIANCE       CLOUDY    44  40  85 N13       30.00R
SIDNEY         CLOUDY    47  40  76 N14       29.98S
CRESCENT LAKE    N/A     46  44  92 NE9         N/A
$$

...OBSERVATIONS IN NORTHERN NEBRASKA AND FAR SOUTHERN SOUTH DAKOTA...

CITY           SKY/WX    TMP DP  RH WIND       PRES   REMARKS
WINNER         LGT RAIN  51  49  92 N15       29.95F
VALENTINE      LGT RAIN  49  47  93 N9        30.01R
THEDFORD       CLOUDY    48  47  97 NE9       30.00R THUNDER
AINSWORTH      LGT RAIN  48  48 100 N7        29.99R
O`NEILL        CLOUDY    53  53  99 N5        29.97S
ORD            CLOUDY    55  51  86 NE7       29.94R
BROKEN BOW     CLOUDY    54  50  86 NE9       29.94S
VALENTINE NWR    N/A     47  46  96 N7G14       N/A
HALSEY           N/A     48  48 100 NE5         N/A
BUTTE            N/A     51  49  92 NE7         N/A
CHAMBERS         N/A     53  51  94 CALM        N/A
EWING            N/A     54  52  93 NE3         N/A
$$

...OBSERVATIONS IN SOUTHWEST NEBRASKA AND FAR NORTHEAST COLORADO...

CITY           SKY/WX    TMP DP  RH WIND       PRES   REMARKS
WRAY           CLOUDY    50  50 100 N10       29.94R
HOLYOKE        CLOUDY    52  45  76 N15       29.95S
IMPERIAL       CLOUDY    52  48  86 N12       29.92R
OGALLALA       CLOUDY    50  48  91 NE14      29.95S
NORTH PLATTE   CLOUDY    52  50  93 NE10      29.94R
MCCOOK         MOCLDY    70  65  84 E6        29.87R
LEXINGTON      CLOUDY    61  54  78 CALM      29.92R
STAPLETON        N/A     48  47  96 CALM        N/A
GOTHENBURG       N/A     58  50  74 NE3         N/A
CALLAWAY         N/A     55  52  89 NE8         N/A
$$

...OBSERVATIONS IN CENTRAL LINCOLN COUNTY AREA...

CITY           SKY/WX    TMP DP  RH WIND       PRES   REMARKS
N.P. AIRPORT   CLOUDY    52  50  93 NE10      29.94R
N.P. DOWNTOWN    N/A     51  49  94 NE5         N/A
N.P. SOUTHEAST   N/A     50  48  93 NE3         N/A
N.P. HILLCREST   N/A     50  49  95 NE14        N/A
$$

...SOME OBSERVATIONS FROM AROUND THE REGION...

CITY           SKY/WX    TMP DP  RH WIND       PRES   REMARKS
DENVER         PTCLDY    45  41  86 N8        29.99R
LIMON            N/A    N/A N/A N/A MISG      29.98R
ASPEN          CLOUDY    44  38  79 NW5       29.94S
LARAMIE        CLOUDY    42  38  85 E10       30.00F
CASPER         CLOUDY    39  38  96 NE10      30.04R FOG     WCI  32
CHEYENNE       CLOUDY    40  35  83 N8        30.01R WCI  34
SCOTTSBLUFF    CLOUDY    45  38  76 NW7       30.04R
GRAND ISLAND   CLOUDY    68  67  96 NE3       29.94R
OMAHA          MOCLDY    73  67  81 S9        29.96R
SIOUX FALLS    CLOUDY    62  60  93 NE7       29.95R
PIERRE         CLOUDY    50  47  89 N9        30.02R
RAPID CITY     CLOUDY    43  41  93 N13       30.05S
BISMARCK       CLOUDY    49  47  93 NW7       30.07R
KANSAS CITY    PTCLDY    71  68  90 S6        30.01R
HILL CITY      MOCLDY    73  66  78 VRB6      29.88R
WICHITA        PTCLDY    70  66  87 SE7       29.96R
DODGE CITY     CLEAR     69  64  84 S14       29.92R
OKLAHOMA CITY  CLEAR     67  65  93 S7        29.97R
DALLAS         CLEAR     74  69  85 SE3       29.93S
$$




USA.gov is the U.S. government's official web portal to all federal, state and local government web resources and services.